Boone, NC

6:24 AM EST on November 20, 2019 (GMT -0500)
Boone

Weather History for KTNB - September, 2019

Change the Weather History Date:

Monday, September 2, 2019

  Actual Average (KGEV) Record (KGEV)
Temperature  
Mean Temperature 66 °F -  
Max Temperature 80 °F 77 °F 87 °F (1993)
Min Temperature 51 °F 55 °F 39 °F (1967)
Growing Degree Days 16 (Base 50)    
Moisture  
Dew Point 57 °F    
Average Humidity 77    
Maximum Humidity 100    
Minimum Humidity 42    
Precipitation  
Precipitation 0.00 in - - ()
Sea Level Pressure  
Sea Level Pressure 30.21 in    
Wind  
Wind Speed 1 mph ()    
Max Wind Speed 13 mph    
Max Gust Speed 16 mph    
Visibility 8.4 miles    
Events      
Averages and records for this station are not official NWS values.
T = Trace of Precipitation, MM = Missing Value Source: Averaged Metar Reports

Daily Weather History Graph

Daily Weather History Graph

Search for Another Location

Airport or City:

Astronomy

Sep. 02, 2019 Rise Set
Actual Time 6:58 AM EDT 7:53 PM EDT
Civil Twilight 6:32 AM EDT 8:19 PM EDT
Nautical Twilight 6:01 AM EDT 8:50 PM EDT
Astronomical Twilight 5:29 AM EDT 9:22 PM EDT
Moon 10:33 AM EDT (9/2) 10:21 PM EDT (9/2)
Length of Visible Light 13h 46m
Length of Day
12h 54m
Waxing Crescent, 15% of the Moon is Illuminated
Sep 2
Waxing Crescent
Sep 5
First Quarter
Sep 14
Full
Sep 21
Last Quarter
Sep 28
New

Hourly Weather History & Observations

Time (EDT) Temp. Heat Index Dew Point Humidity Pressure Visibility Wind Dir Wind Speed Gust Speed Precip Events Conditions
12:15 AM 57.6 °F - 57.6 °F 100% 30.27 in 7.0 mi Calm Calm - N/A   Clear
12:35 AM 56.5 °F - 56.5 °F 100% 30.27 in 4.0 mi Calm Calm - N/A   Clear
12:55 AM 57.0 °F - 57.0 °F 100% 30.27 in 10.0 mi Calm Calm - N/A   Clear
1:15 AM 56.1 °F - 56.1 °F 100% 30.26 in 3.0 mi Calm Calm - N/A   Clear
1:35 AM 56.7 °F - 56.7 °F 100% 30.27 in 7.0 mi Calm Calm - N/A   Clear
1:55 AM 56.5 °F - 56.5 °F 100% 30.26 in 10.0 mi Calm Calm - N/A   Clear
2:15 AM 55.0 °F - 55.0 °F 100% 30.26 in 3.0 mi Calm Calm - N/A   Clear
2:35 AM 55.0 °F - 55.0 °F 100% 30.25 in 5.0 mi Calm Calm - N/A   Clear
2:55 AM 55.2 °F - 55.2 °F 100% 30.25 in 7.0 mi Calm Calm - N/A   Clear
3:15 AM 54.0 °F - 54.0 °F 100% 30.23 in 3.0 mi Calm Calm - N/A   Clear
3:35 AM 53.6 °F - 53.6 °F 100% 30.23 in 2.0 mi Calm Calm - N/A   Clear
3:55 AM 53.6 °F - 53.6 °F 100% 30.23 in 2.5 mi Calm Calm - N/A   Clear
4:15 AM 54.0 °F - 54.0 °F 100% 30.23 in 10.0 mi Calm Calm - N/A   Clear
4:35 AM 53.4 °F - 53.4 °F 100% 30.23 in 5.0 mi Calm Calm - N/A   Clear
4:55 AM 52.7 °F - 52.7 °F 100% 30.23 in 3.0 mi Calm Calm - N/A   Clear
5:15 AM 52.9 °F - 52.9 °F 100% 30.23 in 7.0 mi Calm Calm - N/A   Clear
5:55 AM 52.7 °F - 52.7 °F 100% 30.23 in 7.0 mi Calm Calm - N/A   Clear
6:15 AM 52.9 °F - 52.9 °F 100% 30.23 in 7.0 mi Calm Calm - N/A   Clear
6:35 AM 51.3 °F - 51.3 °F 100% 30.23 in 4.0 mi Calm Calm - N/A   Clear
6:55 AM 52.0 °F - 52.0 °F 100% 30.23 in 5.0 mi Calm Calm - N/A   Clear
7:15 AM 52.2 °F - 52.2 °F 100% 30.24 in 2.5 mi Calm Calm - N/A   Clear
7:35 AM 52.9 °F - 52.9 °F 100% 30.24 in 5.0 mi Calm Calm - N/A   Clear
7:55 AM 53.8 °F - 53.8 °F 100% 30.23 in 7.0 mi Calm Calm - N/A   Clear
8:15 AM 55.9 °F - 55.9 °F 100% 30.24 in 10.0 mi Calm Calm - N/A   Clear
8:35 AM 57.7 °F - 57.6 °F 99% 30.24 in 10.0 mi Calm Calm - N/A   Clear
8:55 AM 59.4 °F - 59.2 °F 99% 30.25 in 10.0 mi Calm Calm - N/A   Clear
9:15 AM 61.5 °F - 59.7 °F 94% 30.24 in 10.0 mi Calm Calm - N/A   Clear
9:55 AM 70.3 °F - 57.2 °F 63% 30.23 in 10.0 mi West 5.8 mph - N/A   Clear
10:35 AM 73.0 °F - 57.4 °F 58% 30.23 in 10.0 mi West 6.9 mph - N/A   Clear
10:55 AM 73.4 °F - 57.4 °F 57% 30.23 in 10.0 mi West 12.7 mph 16.1 mph N/A   Clear
11:15 AM 74.1 °F - 57.4 °F 56% 30.23 in 10.0 mi West 10.4 mph - N/A   Clear
11:35 AM 75.6 °F - 57.2 °F 53% 30.23 in 10.0 mi Calm Calm - N/A   Clear
11:55 AM 75.7 °F - 57.2 °F 52% 30.23 in 10.0 mi Calm Calm - N/A   Clear
12:15 PM 75.4 °F - 56.7 °F 52% 30.23 in 10.0 mi Calm Calm - N/A   Scattered Clouds
12:35 PM 76.1 °F - 57.6 °F 53% 30.23 in 10.0 mi NW 5.8 mph - N/A   Mostly Cloudy
1:15 PM 76.5 °F - 57.4 °F 52% 30.22 in 10.0 mi WNW 4.6 mph - N/A   Scattered Clouds
1:35 PM 76.5 °F - 57.6 °F 52% 30.21 in 10.0 mi Calm Calm - N/A   Scattered Clouds
1:55 PM 76.6 °F - 57.9 °F 52% 30.21 in 10.0 mi WNW 5.8 mph - N/A   Mostly Cloudy
2:15 PM 78.3 °F - 57.6 °F 49% 30.20 in 10.0 mi Calm Calm - N/A   Scattered Clouds
2:35 PM 79.5 °F - 56.5 °F 45% 30.19 in 10.0 mi Calm Calm - N/A   Scattered Clouds
3:15 PM 77.4 °F - 57.4 °F 50% 30.18 in 10.0 mi WNW 10.4 mph - N/A   Mostly Cloudy
3:35 PM 79.2 °F - 55.9 °F 45% 30.17 in 10.0 mi West 9.2 mph - N/A   Scattered Clouds
3:55 PM 79.0 °F - 55.8 °F 45% 30.16 in 10.0 mi Calm Calm - N/A   Clear
4:15 PM 79.9 °F - 55.6 °F 43% 30.16 in 10.0 mi Calm Calm - N/A   Scattered Clouds
4:35 PM 79.3 °F - 56.8 °F 46% 30.16 in 10.0 mi Calm Calm - N/A   Scattered Clouds
4:55 PM 80.6 °F 80.6 °F 56.3 °F 43% 30.15 in 10.0 mi Calm Calm - N/A   Mostly Cloudy
5:15 PM 80.8 °F 80.7 °F 55.4 °F 42% 30.15 in 10.0 mi Calm Calm - N/A   Scattered Clouds
5:35 PM 79.7 °F - 56.3 °F 44% 30.15 in 10.0 mi WNW 5.8 mph - N/A   Clear
5:55 PM 79.2 °F - 56.5 °F 46% 30.15 in 10.0 mi Calm Calm - N/A   Clear
6:15 PM 78.4 °F - 56.7 °F 47% 30.15 in 10.0 mi WNW 5.8 mph - N/A   Clear
6:35 PM 77.9 °F - 57.0 °F 48% 30.15 in 10.0 mi Calm Calm - N/A   Clear
6:55 PM 77.4 °F - 57.4 °F 50% 30.15 in 10.0 mi WNW 8.1 mph - N/A   Clear
7:15 PM 76.3 °F - 57.9 °F 53% 30.15 in 10.0 mi WNW 4.6 mph - N/A   Clear
7:35 PM 75.0 °F - 58.1 °F 56% 30.16 in 10.0 mi Calm Calm - N/A   Clear
7:55 PM 73.0 °F - 58.3 °F 60% 30.16 in 10.0 mi Calm Calm - N/A   Clear
8:15 PM 69.1 °F - 59.5 °F 72% 30.16 in 10.0 mi Calm Calm - N/A   Clear
8:35 PM 67.8 °F - 59.9 °F 76% 30.16 in 10.0 mi Calm Calm - N/A   Clear
8:55 PM 68.2 °F - 59.4 °F 73% 30.16 in 10.0 mi Calm Calm - N/A   Clear
9:35 PM 62.8 °F - 61.7 °F 96% 30.17 in 10.0 mi Calm Calm - N/A   Clear
9:55 PM 62.6 °F - 61.5 °F 96% 30.17 in 10.0 mi Calm Calm - N/A   Clear
10:15 PM 62.1 °F - 61.7 °F 99% 30.18 in 10.0 mi Calm Calm - N/A   Clear
10:35 PM 61.9 °F - 61.5 °F 99% 30.19 in 10.0 mi Calm Calm - N/A   Clear
10:55 PM 62.1 °F - 61.5 °F 98% 30.19 in 10.0 mi Calm Calm - N/A   Clear
11:15 PM 61.0 °F - 61.0 °F 100% 30.18 in 7.0 mi Calm Calm - N/A   Clear
11:35 PM 61.0 °F - 61.0 °F 100% 30.18 in 10.0 mi Calm Calm - N/A   Clear